Location: *
(18.5200°S, 46.4500°E)
Time: 03:21:57
(UTC+00:00)

Cosmos 2360 Rocket - Pass Details

Date: 19 July 2019
Orbit: 835 x 844 km, 71.0° (Epoch: 19 August)

Event Time Altitude Azimuth Distance (km) Brightness Sun altitude
Rises 16:59:34 0° 209° (SSW) 3,416 5.5 -33.6°
Reaches altitude 10° 17:02:09 10° 215° (SW) 2,475 4.8 -34.2°
Maximum altitude 17:07:26 41° 284° (WNW) 1,215 3.3 -35.4°
Enters shadow 17:07:29 41° 285° (WNW) 1,215 3.3 -35.4°
Exits shadow 17:12:27 11° 351° (N) 2,371 4.7 -36.5°
Drops below altitude 10° 17:12:40 10° 352° (N) 2,448 4.8 -36.6°
Sets 17:15:13 0° 359° (N) 3,375 5.5 -37.2°
